Time,TemperatureF,DewpointF,PressureIn,WindDirection,WindDirectionDegrees,WindSpeedMPH,WindSpeedGustMPH,Humidity,HourlyPrecipIn,Conditions,Clouds,dailyrainin,SoftwareType,DateUTC
2013-02-08 00:01:00,24.0,21.0,30.00,SE,130,16.0,-999.0,89,-99.99,,,-99.99,,2013-02-08 07:01:00,
2013-02-08 00:11:00,24.0,21.0,30.02,SE,132,14.0,-999.0,89,-99.99,,,-99.99,,2013-02-08 07:11:00,
2013-02-08 00:21:00,24.0,21.0,30.02,SE,127,14.0,-999.0,88,-99.99,,,-99.99,,2013-02-08 07:21:00,
2013-02-08 00:32:00,24.0,21.0,30.00,SE,126,16.0,-999.0,89,-99.99,,,-99.99,,2013-02-08 07:32:00,
2013-02-08 00:42:00,23.0,21.0,30.00,SE,129,16.0,-999.0,89,-99.99,,,-99.99,,2013-02-08 07:42:00,
2013-02-08 00:51:00,24.0,21.0,30.00,SE,129,15.0,-999.0,89,-99.99,,,-99.99,,2013-02-08 07:51:00,
2013-02-08 01:01:00,24.0,21.0,30.00,SE,132,16.0,-999.0,89,-99.99,,,-99.99,,2013-02-08 08:01:00,
2013-02-08 01:11:00,24.0,21.0,29.98,SE,130,16.0,-999.0,88,-99.99,,,-99.99,,2013-02-08 08:11:00,
2013-02-08 01:21:00,24.0,21.0,29.99,SE,132,15.0,-999.0,88,-99.99,,,-99.99,,2013-02-08 08:21:00,
2013-02-08 01:32:00,24.0,21.0,29.96,SE,128,19.0,-999.0,88,-99.99,,,-99.99,,2013-02-08 08:32:00,
2013-02-08 01:42:00,24.0,21.0,29.99,ESE,119,19.0,-999.0,88,-99.99,,,-99.99,,2013-02-08 08:42:00,
2013-02-08 01:52:00,25.0,22.0,29.98,ESE,119,18.0,-999.0,86,-99.99,,,-99.99,,2013-02-08 08:52:00,
2013-02-08 02:03:00,25.0,22.0,29.98,ESE,119,18.0,-999.0,86,-99.99,,,-99.99,,2013-02-08 09:03:00,
2013-02-08 02:11:00,26.0,22.0,29.97,ESE,122,12.0,-999.0,85,-99.99,,,-99.99,,2013-02-08 09:11:00,
2013-02-08 02:21:00,26.0,22.0,29.98,ESE,119,15.0,-999.0,84,-99.99,,,-99.99,,2013-02-08 09:21:00,
2013-02-08 02:32:00,26.0,21.0,29.97,SE,140,12.0,-999.0,83,-99.99,,,-99.99,,2013-02-08 09:32:00,
2013-02-08 02:42:00,26.0,21.0,29.97,SE,129,13.0,-999.0,82,-99.99,,,-99.99,,2013-02-08 09:42:00,
2013-02-08 02:52:00,26.0,21.0,29.96,SE,136,12.0,-999.0,81,-99.99,,,-99.99,,2013-02-08 09:52:00,
2013-02-08 03:01:00,26.0,21.0,29.96,SE,134,13.0,-999.0,81,-99.99,,,-99.99,,2013-02-08 10:01:00,
2013-02-08 03:11:00,25.0,21.0,29.95,SE,135,13.0,-999.0,82,-99.99,,,-99.99,,2013-02-08 10:11:00,
2013-02-08 03:22:00,25.0,20.0,29.94,ESE,118,12.0,-999.0,82,-99.99,,,-99.99,,2013-02-08 10:22:00,
2013-02-08 03:32:00,24.0,20.0,29.96,ESE,119,10.0,-999.0,83,-99.99,,,-99.99,,2013-02-08 10:32:00,
2013-02-08 03:42:00,25.0,20.0,29.93,SE,125,11.0,-999.0,82,-99.99,,,-99.99,,2013-02-08 10:42:00,
2013-02-08 03:51:00,25.0,20.0,29.94,SE,125,13.0,-999.0,81,-99.99,,,-99.99,,2013-02-08 10:51:00,
2013-02-08 04:01:00,25.0,20.0,29.93,SE,134,13.0,-999.0,80,-99.99,,,-99.99,,2013-02-08 11:01:00,
2013-02-08 04:11:00,25.0,19.0,29.93,SE,125,13.0,-999.0,78,-99.99,,,-99.99,,2013-02-08 11:11:00,
2013-02-08 04:21:00,26.0,19.0,29.92,SE,132,13.0,-999.0,77,-99.99,,,-99.99,,2013-02-08 11:21:00,
2013-02-08 04:32:00,26.0,18.0,29.93,SE,137,13.0,-999.0,72,-99.99,,,-99.99,,2013-02-08 11:32:00,
2013-02-08 04:42:00,26.0,18.0,29.94,SE,136,13.0,-999.0,72,-99.99,,,-99.99,,2013-02-08 11:42:00,
2013-02-08 04:52:00,27.0,18.0,29.95,SE,134,13.0,-999.0,70,-99.99,,,-99.99,,2013-02-08 11:52:00,
2013-02-08 05:02:00,28.0,18.0,29.92,SE,134,13.0,-999.0,66,-99.99,,,-99.99,,2013-02-08 12:02:00,
2013-02-08 05:11:00,28.0,17.0,29.91,SE,139,14.0,-999.0,63,-99.99,,,-99.99,,2013-02-08 12:11:00,
2013-02-08 05:22:00,28.0,18.0,29.89,SE,136,15.0,-999.0,65,-99.99,,,-99.99,,2013-02-08 12:22:00,
2013-02-08 05:33:00,29.0,17.0,29.92,SE,135,15.0,-999.0,62,-99.99,,,-99.99,,2013-02-08 12:33:00,
2013-02-08 05:42:00,29.0,17.0,29.91,SE,130,15.0,-999.0,62,-99.99,,,-99.99,,2013-02-08 12:42:00,
2013-02-08 05:52:00,29.0,17.0,29.92,SE,128,15.0,-999.0,62,-99.99,,,-99.99,,2013-02-08 12:52:00,
2013-02-08 06:01:00,29.0,17.0,29.89,SE,133,15.0,-999.0,61,-99.99,,,-99.99,,2013-02-08 13:01:00,
2013-02-08 06:11:00,29.0,17.0,29.90,SE,131,15.0,-999.0,61,-99.99,,,-99.99,,2013-02-08 13:11:00,
2013-02-08 06:22:00,29.0,17.0,29.87,SE,139,14.0,-999.0,60,-99.99,,,-99.99,,2013-02-08 13:22:00,
2013-02-08 06:32:00,29.0,17.0,29.89,SE,140,16.0,-999.0,61,-99.99,,,-99.99,,2013-02-08 13:32:00,
2013-02-08 06:42:00,29.0,17.0,29.89,SE,140,16.0,-999.0,61,-99.99,,,-99.99,,2013-02-08 13:42:00,
2013-02-08 06:51:00,28.0,17.0,29.89,SE,146,14.0,-999.0,64,-99.99,,,-99.99,,2013-02-08 13:51:00,
2013-02-08 07:02:00,28.0,17.0,29.89,SSE,148,14.0,-999.0,63,-99.99,,,-99.99,,2013-02-08 14:02:00,
2013-02-08 07:11:00,28.0,17.0,29.88,SSE,150,13.0,-999.0,64,-99.99,,,-99.99,,2013-02-08 14:11:00,
2013-02-08 07:22:00,27.0,17.0,29.89,SSE,149,12.0,-999.0,65,-99.99,,,-99.99,,2013-02-08 14:22:00,
2013-02-08 07:32:00,27.0,17.0,29.89,SE,145,14.0,-999.0,66,-99.99,,,-99.99,,2013-02-08 14:32:00,
2013-02-08 07:42:00,28.0,17.0,29.89,SSE,147,12.0,-999.0,63,-99.99,,,-99.99,,2013-02-08 14:42:00,
2013-02-08 07:52:00,28.0,17.0,29.90,SE,144,11.0,-999.0,64,-99.99,,,-99.99,,2013-02-08 14:52:00,
2013-02-08 08:02:00,28.0,17.0,29.89,SE,141,18.0,-999.0,62,-99.99,,,-99.99,,2013-02-08 15:02:00,
2013-02-08 08:11:00,28.0,17.0,29.88,SE,141,14.0,-999.0,61,-99.99,,,-99.99,,2013-02-08 15:11:00,
2013-02-08 08:22:00,29.0,17.0,29.87,SE,135,15.0,-999.0,60,-99.99,,,-99.99,,2013-02-08 15:22:00,
2013-02-08 08:32:00,30.0,17.0,29.89,SE,138,15.0,-999.0,57,-99.99,,,-99.99,,2013-02-08 15:32:00,
2013-02-08 08:42:00,31.0,17.0,29.89,SE,139,13.0,-999.0,55,-99.99,,,-99.99,,2013-02-08 15:42:00,
2013-02-08 08:52:00,31.0,17.0,29.87,SE,138,14.0,-999.0,56,-99.99,,,-99.99,,2013-02-08 15:52:00,
2013-02-08 09:01:00,31.0,18.0,29.87,SE,143,10.0,-999.0,57,-99.99,,,-99.99,,2013-02-08 16:01:00,
2013-02-08 09:11:00,32.0,18.0,29.89,SE,143,10.0,-999.0,57,-99.99,,,-99.99,,2013-02-08 16:11:00,
2013-02-08 09:22:00,33.0,19.0,29.88,SE,143,11.0,-999.0,57,-99.99,,,-99.99,,2013-02-08 16:22:00,
2013-02-08 09:32:00,34.0,20.0,29.87,SSE,150,9.0,-999.0,56,-99.99,,,-99.99,,2013-02-08 16:32:00,
2013-02-08 09:42:00,34.0,19.0,29.87,SE,143,9.0,-999.0,54,-99.99,,,-99.99,,2013-02-08 16:42:00,
2013-02-08 09:52:00,35.0,21.0,29.89,SSE,148,7.0,-999.0,57,-99.99,,,-99.99,,2013-02-08 16:52:00,
2013-02-08 10:03:00,36.0,21.0,29.87,SSE,163,9.0,-999.0,54,-99.99,,,-99.99,,2013-02-08 17:03:00,
2013-02-08 10:12:00,36.0,21.0,29.86,SSE,153,8.0,-999.0,56,-99.99,,,-99.99,,2013-02-08 17:12:00,
2013-02-08 10:23:00,36.0,22.0,29.87,South,174,9.0,-999.0,55,-99.99,,,-99.99,,2013-02-08 17:23:00,
2013-02-08 10:32:00,38.0,21.0,29.85,SSE,168,9.0,-999.0,51,-99.99,,,-99.99,,2013-02-08 17:32:00,
2013-02-08 10:42:00,39.0,20.0,29.87,South,189,8.0,-999.0,45,-99.99,,,-99.99,,2013-02-08 17:42:00,
2013-02-08 10:52:00,40.0,20.0,29.88,South,178,10.0,-999.0,43,-99.99,,,-99.99,,2013-02-08 17:52:00,
2013-02-08 11:02:00,41.0,19.0,29.89,South,174,7.0,-999.0,41,-99.99,,,-99.99,,2013-02-08 18:02:00,
2013-02-08 11:12:00,41.0,19.0,29.85,South,188,10.0,-999.0,41,-99.99,,,-99.99,,2013-02-08 18:12:00,
2013-02-08 11:24:00,42.0,19.0,29.86,SSW,192,13.0,-999.0,39,-99.99,,,-99.99,,2013-02-08 18:24:00,
2013-02-08 11:35:00,44.0,19.0,29.85,South,181,10.0,-999.0,37,-99.99,,,-99.99,,2013-02-08 18:35:00,
2013-02-08 11:43:00,45.0,17.0,29.84,SSW,192,5.0,-999.0,33,-99.99,,,-99.99,,2013-02-08 18:43:00,
2013-02-08 11:52:00,45.0,18.0,29.84,SW,220,9.0,-999.0,34,-99.99,,,-99.99,,2013-02-08 18:52:00,
2013-02-08 12:02:00,47.0,18.0,29.83,SSW,196,7.0,-999.0,31,-99.99,,,-99.99,,2013-02-08 19:02:00,
2013-02-08 12:11:00,48.0,17.0,29.83,SSW,198,3.0,-999.0,29,-99.99,,,-99.99,,2013-02-08 19:11:00,
2013-02-08 12:22:00,47.0,19.0,29.82,ESE,104,5.0,-999.0,33,-99.99,,,-99.99,,2013-02-08 19:22:00,
2013-02-08 12:32:00,46.0,19.0,29.81,ESE,109,8.0,-999.0,33,-99.99,,,-99.99,,2013-02-08 19:32:00,
2013-02-08 12:42:00,47.0,19.0,29.81,SE,140,2.0,-999.0,33,-99.99,,,-99.99,,2013-02-08 19:42:00,
2013-02-08 12:52:00,49.0,18.0,29.81,SSW,200,3.0,-999.0,29,-99.99,,,-99.99,,2013-02-08 19:52:00,
2013-02-08 13:02:00,49.0,18.0,29.81,SSW,200,3.0,-999.0,29,-99.99,,,-99.99,,2013-02-08 20:02:00,
2013-02-08 13:11:00,50.0,18.0,29.80,North,0,0.0,-999.0,27,-99.99,,,-99.99,,2013-02-08 20:11:00,
2013-02-08 13:22:00,50.0,17.0,29.79,NE,35,10.0,-999.0,26,-99.99,,,-99.99,,2013-02-08 20:22:00,
2013-02-08 13:32:00,51.0,16.0,29.80,NNE,33,2.0,-999.0,25,-99.99,,,-99.99,,2013-02-08 20:32:00,
2013-02-08 13:42:00,50.0,15.0,29.79,NNE,31,2.0,-999.0,25,-99.99,,,-99.99,,2013-02-08 20:42:00,
2013-02-08 13:52:00,51.0,16.0,29.80,ENE,76,5.0,-999.0,24,-99.99,,,-99.99,,2013-02-08 20:52:00,
2013-02-08 14:02:00,51.0,16.0,29.79,North,9,2.0,-999.0,24,-99.99,,,-99.99,,2013-02-08 21:02:00,
2013-02-08 14:11:00,51.0,16.0,29.78,North,0,0.0,-999.0,24,-99.99,,,-99.99,,2013-02-08 21:11:00,
2013-02-08 14:22:00,52.0,16.0,29.77,North,0,0.0,-999.0,23,-99.99,,,-99.99,,2013-02-08 21:22:00,
2013-02-08 14:32:00,53.0,16.0,29.78,WNW,289,3.0,-999.0,23,-99.99,,,-99.99,,2013-02-08 21:32:00,
2013-02-08 14:42:00,53.0,18.0,29.76,South,176,6.0,-999.0,25,-99.99,,,-99.99,,2013-02-08 21:42:00,
2013-02-08 14:52:00,50.0,18.0,29.76,East,91,8.0,-999.0,27,-99.99,,,-99.99,,2013-02-08 21:52:00,
2013-02-08 15:02:00,50.0,18.0,29.76,East,91,8.0,-999.0,27,-99.99,,,-99.99,,2013-02-08 22:02:00,
2013-02-08 15:11:00,49.0,19.0,29.77,NNW,342,9.0,-999.0,30,-99.99,,,-99.99,,2013-02-08 22:11:00,
2013-02-08 15:22:00,48.0,19.0,29.77,East,88,11.0,-999.0,31,-99.99,,,-99.99,,2013-02-08 22:22:00,
2013-02-08 15:32:00,47.0,20.0,29.77,North,11,10.0,-999.0,34,-99.99,,,-99.99,,2013-02-08 22:32:00,
2013-02-08 15:42:00,46.0,20.0,29.75,North,5,12.0,-999.0,34,-99.99,,,-99.99,,2013-02-08 22:42:00,
2013-02-08 15:52:00,46.0,21.0,29.77,NNE,17,9.0,-999.0,37,-99.99,,,-99.99,,2013-02-08 22:52:00,
2013-02-08 16:01:00,45.0,20.0,29.78,North,9,11.0,-999.0,36,-99.99,,,-99.99,,2013-02-08 23:01:00,
2013-02-08 16:11:00,45.0,20.0,29.78,North,7,12.0,-999.0,37,-99.99,,,-99.99,,2013-02-08 23:11:00,
2013-02-08 16:21:00,44.0,20.0,29.77,NNE,12,12.0,-999.0,38,-99.99,,,-99.99,,2013-02-08 23:21:00,
2013-02-08 16:32:00,44.0,21.0,29.77,North,6,11.0,-999.0,41,-99.99,,,-99.99,,2013-02-08 23:32:00,
2013-02-08 16:42:00,43.0,22.0,29.75,North,5,11.0,-999.0,43,-99.99,,,-99.99,,2013-02-08 23:42:00,
2013-02-08 16:52:00,42.0,22.0,29.75,East,90,10.0,-999.0,45,-99.99,,,-99.99,,2013-02-08 23:52:00,
2013-02-08 17:02:00,41.0,22.0,29.77,North,3,17.0,-999.0,47,-99.99,,,-99.99,,2013-02-09 00:02:00,
2013-02-08 17:11:00,41.0,23.0,29.76,North,2,15.0,-999.0,49,-99.99,,,-99.99,,2013-02-09 00:11:00,
2013-02-08 17:22:00,40.0,24.0,29.77,ENE,63,16.0,-999.0,52,-99.99,,,-99.99,,2013-02-09 00:22:00,
2013-02-08 17:32:00,37.0,22.0,29.78,North,-999,12.0,-999.0,54,-99.99,,,-99.99,,2013-02-09 00:32:00,
2013-02-08 17:42:00,37.0,22.0,29.78,North,-999,12.0,-999.0,54,-99.99,,,-99.99,,2013-02-09 00:42:00,
2013-02-08 17:52:00,36.0,22.0,29.77,NW,313,11.0,-999.0,56,-99.99,,,-99.99,,2013-02-09 00:52:00,
2013-02-08 18:01:00,35.0,21.0,29.78,North,-999,12.0,-999.0,57,-99.99,,,-99.99,,2013-02-09 01:01:00,
2013-02-08 18:11:00,34.0,21.0,29.77,South,174,11.0,-999.0,58,-99.99,,,-99.99,,2013-02-09 01:11:00,
2013-02-08 18:22:00,33.0,21.0,29.78,North,3,10.0,-999.0,60,-99.99,,,-99.99,,2013-02-09 01:22:00,
2013-02-08 18:32:00,33.0,21.0,29.78,North,5,13.0,-999.0,61,-99.99,,,-99.99,,2013-02-09 01:32:00,
2013-02-08 18:42:00,32.0,21.0,29.78,North,5,9.0,-999.0,64,-99.99,,,-99.99,,2013-02-09 01:42:00,
2013-02-08 18:52:00,32.0,21.0,29.79,North,-999,12.0,-999.0,65,-99.99,,,-99.99,,2013-02-09 01:52:00,
2013-02-08 19:01:00,31.0,22.0,29.78,North,-999,10.0,-999.0,67,-99.99,,,-99.99,,2013-02-09 02:01:00,
2013-02-08 19:11:00,31.0,22.0,29.80,North,-999,12.0,-999.0,69,-99.99,,,-99.99,,2013-02-09 02:11:00,
2013-02-08 19:21:00,30.0,22.0,29.78,NNW,339,10.0,-999.0,70,-99.99,,,-99.99,,2013-02-09 02:21:00,
2013-02-08 19:32:00,29.0,22.0,29.80,NNW,337,10.0,-999.0,73,-99.99,,,-99.99,,2013-02-09 02:32:00,
2013-02-08 19:42:00,29.0,22.0,29.80,NNW,328,11.0,-999.0,74,-99.99,,,-99.99,,2013-02-09 02:42:00,
2013-02-08 19:52:00,28.0,21.0,29.79,NW,326,11.0,-999.0,74,-99.99,,,-99.99,,2013-02-09 02:52:00,
2013-02-08 20:02:00,28.0,22.0,29.80,NW,319,11.0,-999.0,75,-99.99,,,-99.99,,2013-02-09 03:02:00,
2013-02-08 20:11:00,28.0,21.0,29.79,NW,320,11.0,-999.0,77,-99.99,,,-99.99,,2013-02-09 03:11:00,
2013-02-08 20:22:00,28.0,21.0,29.79,NNW,328,12.0,-999.0,77,-99.99,,,-99.99,,2013-02-09 03:22:00,
2013-02-08 20:32:00,27.0,21.0,29.79,NNW,327,10.0,-999.0,78,-99.99,,,-99.99,,2013-02-09 03:32:00,
2013-02-08 20:42:00,27.0,21.0,29.79,NW,323,11.0,-999.0,79,-99.99,,,-99.99,,2013-02-09 03:42:00,
2013-02-08 20:52:00,26.0,21.0,29.78,NW,318,12.0,-999.0,80,-99.99,,,-99.99,,2013-02-09 03:52:00,
2013-02-08 21:02:00,26.0,22.0,29.79,NW,312,11.0,-999.0,82,-99.99,,,-99.99,,2013-02-09 04:02:00,
2013-02-08 21:12:00,26.0,22.0,29.80,NW,322,12.0,-999.0,84,-99.99,,,-99.99,,2013-02-09 04:12:00,
2013-02-08 21:23:00,26.0,22.0,29.80,NNW,338,11.0,-999.0,84,-99.99,,,-99.99,,2013-02-09 04:23:00,
2013-02-08 21:32:00,26.0,22.0,29.80,North,-999,9.0,-999.0,85,-99.99,,,-99.99,,2013-02-09 04:32:00,
2013-02-08 21:42:00,26.0,22.0,29.79,NNW,340,10.0,-999.0,85,-99.99,,,-99.99,,2013-02-09 04:42:00,
2013-02-08 21:52:00,25.0,22.0,29.79,North,-999,11.0,-999.0,87,-99.99,,,-99.99,,2013-02-09 04:52:00,
2013-02-08 22:02:00,24.0,21.0,29.80,WSW,258,9.0,-999.0,88,-99.99,,,-99.99,,2013-02-09 05:02:00,
2013-02-08 22:12:00,24.0,21.0,29.80,North,7,9.0,-999.0,88,-99.99,,,-99.99,,2013-02-09 05:12:00,
2013-02-08 22:22:00,24.0,21.0,29.80,NNE,19,6.0,-999.0,89,-99.99,,,-99.99,,2013-02-09 05:22:00,
2013-02-08 22:32:00,25.0,22.0,29.80,NNW,343,6.0,-999.0,89,-99.99,,,-99.99,,2013-02-09 05:32:00,
2013-02-08 22:42:00,24.0,22.0,29.80,North,5,9.0,-999.0,89,-99.99,,,-99.99,,2013-02-09 05:42:00,
2013-02-08 22:52:00,24.0,22.0,29.80,NNW,343,8.0,-999.0,90,-99.99,,,-99.99,,2013-02-09 05:52:00,
2013-02-08 23:01:00,24.0,22.0,29.77,NNW,341,10.0,-999.0,90,-99.99,,,-99.99,,2013-02-09 06:01:00,
2013-02-08 23:11:00,24.0,22.0,29.77,North,-999,11.0,-999.0,91,-99.99,,,-99.99,,2013-02-09 06:11:00,
2013-02-08 23:21:00,24.0,22.0,29.78,West,259,11.0,-999.0,91,-99.99,,,-99.99,,2013-02-09 06:21:00,
2013-02-08 23:32:00,23.0,21.0,29.80,NNW,343,6.0,-999.0,91,-99.99,,,-99.99,,2013-02-09 06:32:00,
2013-02-08 23:42:00,23.0,21.0,29.78,NW,318,6.0,-999.0,92,-99.99,,,-99.99,,2013-02-09 06:42:00,
2013-02-08 23:51:00,23.0,21.0,29.80,NNW,339,7.0,-999.0,92,-99.99,,,-99.99,,2013-02-09 06:51:00,